Location: Sobotiste
(48.7170°N, 17.4000°E)
Time: 18:28:41
(UTC+01:00)

JY1SAT - Visible Passes

Search period start: 14 March 2026 00:00
Search period end: 24 March 2026 00:00
Orbit: 471 x 478 km, 97.4° (Epoch: 14 March)

Date Brightness Start Highest point End Pass type
(mag) Time Alt. Az. Time Alt. Az. Time Alt. Az.
14 Mar ? 20:07:48 16° NNE 20:07:48 16° NNE 20:08:45 10° N visible
14 Mar ? 21:41:57 10° NW 21:41:57 10° NW 21:41:57 10° NW visible
15 Mar ? 19:39:53 12° NE 19:39:53 12° NE 19:40:21 10° NNE visible
15 Mar ? 21:14:01 15° NNW 21:14:01 15° NNW 21:14:47 10° NNW visible
16 Mar ? 20:46:04 20° N 20:46:04 20° N 20:47:14 10° N visible
17 Mar ? 20:18:04 19° NNE 20:18:04 19° NNE 20:19:24 10° N visible
18 Mar ? 19:50:02 15° NE 19:50:02 15° NE 19:51:08 10° NNE visible
18 Mar ? 21:24:10 16° NW 21:24:10 16° NW 21:25:03 10° NNW visible
19 Mar ? 20:56:06 23° NNW 20:56:06 23° NNW 20:57:31 10° NNW visible
20 Mar ? 20:27:59 24° NNE 20:27:59 24° NNE 20:29:39 10° N visible
21 Mar ? 19:59:51 18° NE 19:59:51 18° NE 20:01:26 10° NNE visible
21 Mar ? 21:33:58 16° NW 21:33:58 16° NW 21:34:56 10° NNW visible
22 Mar ? 19:31:40 11° NE 19:31:40 11° NE 19:32:27 10° NE visible
22 Mar ? 21:05:47 25° NNW 21:05:47 25° NNW 21:07:24 10° NNW visible
23 Mar ? 20:37:34 29° N 20:37:34 29° N 20:39:31 10° N visible
